This is the latest recevied weather packets stored in our database for station/object KC4JES. If no packets are shown the sender has not sent any weather packets the latest 10 day(s).
| Time | Temp. | Humidity | Pressure | Rain* | Wind** | Luminosity | Snow |
|---|---|---|---|---|---|---|---|
| 1777335404 | 19.44° C | 85% | 1020.9 hPa | 0 mm | - | 0 W/m² | - |
| 1777335103 | 19.44° C | 85% | 1020.7 hPa | 0 mm | - | 0 W/m² | - |
| 1777334800 | 19.44° C | 85% | 1020.7 hPa | 0 mm | - | 1 W/m² | - |
| 1777334498 | 19.44° C | 85% | 1020.9 hPa | 0 mm | - | 1 W/m² | - |
| 1777334194 | 19.44° C | 85% | 1020.6 hPa | 0 mm | - | 2 W/m² | - |
| 1777333893 | 19.44° C | 85% | 1020.5 hPa | 0 mm | - | 3 W/m² | - |
| 1777333591 | 19.44° C | 85% | 1021 hPa | 0 mm | - | 3 W/m² | - |
| 1777333287 | 19.44° C | 84% | 1020.5 hPa | 0 mm | - | 5 W/m² | - |
| 1777332985 | 19.44° C | 84% | 1020.9 hPa | 0 mm | - | 6 W/m² | - |
| 1777332683 | 19.44° C | 84% | 1020.6 hPa | 0 mm | - | 7 W/m² | - |
| 1777332379 | 19.44° C | 84% | 1020.6 hPa | 0 mm | - | 7 W/m² | - |
| 1777332076 | 19.44° C | 84% | 1020.5 hPa | 0 mm | - | 10 W/m² | - |
| 1777331774 | 19.44° C | 83% | 1020.7 hPa | 0 mm | - | 14 W/m² | - |
| 1777331470 | 19.44° C | 83% | 1020.7 hPa | 0 mm | - | 19 W/m² | - |
| 1777331169 | 19.44° C | 83% | 1020.5 hPa | 0 mm | - | 20 W/m² | - |
| 1777330865 | 20° C | 83% | 1020.2 hPa | 0 mm | - | 26 W/m² | - |
| 1777330562 | 20° C | 82% | 1020.6 hPa | 0 mm | - | 27 W/m² | - |
| 1777330259 | 20° C | 83% | 1020.3 hPa | 0 mm | - | 30 W/m² | - |
| 1777329957 | 20° C | 83% | 1020.4 hPa | 0 mm | - | 36 W/m² | - |
| 1777329656 | 20° C | 82% | 1020.4 hPa | 0 mm | - | 36 W/m² | - |
| 1777329354 | 20° C | 82% | 1020.5 hPa | 0 mm | - | 48 W/m² | - |
| 1777329050 | 20° C | 82% | 1020.4 hPa | 0 mm | - | 48 W/m² | - |
| 1777328748 | 20° C | 81% | 1020.1 hPa | 0 mm | - | 42 W/m² | - |
| 1777328446 | 20° C | 82% | 1020.5 hPa | 0 mm | - | 60 W/m² | - |
| 1777328144 | 20° C | 82% | 1020.2 hPa | 0 mm | - | 51 W/m² | - |
* Rain latest hour (hover to see other rain measurements)
** Current wind speed in m/s (hover to see current wind gust speed)